Location: NJAA Observatory
(40.6819°N, 74.8979°W)
Time: 06:43:25
(UTC-05:00)

Courier 1B - All Passes

Search period start: 01 February 2015 00:00
Search period end: 11 February 2015 00:00
Orbit: 963 x 1209 km, 28.3° (Epoch: 30 January)

Date Brightness Start Highest point End Pass type
(mag) Time Alt. Az. Time Alt. Az. Time Alt. Az.
01 Feb - 16:27:20 10° SSW 16:31:05 16° SSE 16:35:03 10° ESE daylight
01 Feb - 18:18:45 10° SW 18:24:11 27° S 18:29:53 10° ESE visible
01 Feb - 20:11:52 10° WSW 20:17:30 27° S 20:23:23 10° SE visible
01 Feb - 22:06:26 10° WSW 22:10:48 17° SSW 22:15:10 10° SSE visible
02 Feb - 15:35:08 10° S 15:37:37 13° SSE 15:40:20 10° SE daylight
02 Feb - 17:25:32 10° SW 17:30:40 25° S 17:36:01 10° ESE daylight
02 Feb - 19:18:19 10° WSW 19:23:55 28° S 19:29:45 10° SE visible
02 Feb - 21:12:23 10° WSW 21:17:13 20° SSW 21:22:08 10° SSE visible
03 Feb - 16:32:26 10° SSW 16:37:11 22° SSE 16:42:06 10° ESE daylight
03 Feb - 18:24:52 10° WSW 18:30:22 28° S 18:36:05 10° ESE visible
03 Feb - 20:18:32 10° WSW 20:23:39 22° SSW 20:28:54 10° SE visible
03 Feb - 22:15:51 10° SSW 22:16:52 10° SSW 22:17:37 10° SSW visible
04 Feb - 15:39:30 10° SSW 15:43:43 18° SSE 15:48:04 10° ESE daylight
04 Feb - 17:31:28 10° SW 17:36:50 27° S 17:42:23 10° ESE daylight
04 Feb - 19:24:51 10° WSW 19:30:05 25° S 19:35:31 10° SE visible
04 Feb - 21:20:09 10° SW 21:23:18 13° SSW 21:26:20 10° S visible
05 Feb - 14:46:49 10° SSW 14:50:15 15° SSE 14:53:50 10° SE daylight
05 Feb - 16:38:08 10° SW 16:43:20 26° S 16:48:40 10° ESE daylight
05 Feb - 18:31:14 10° WSW 18:36:33 26° S 18:42:03 10° SE visible
05 Feb - 20:25:45 10° SW 20:29:46 16° SSW 20:33:45 10° SSE visible
06 Feb - 13:54:42 10° S 13:56:48 12° SSE 13:59:05 10° SE daylight
06 Feb - 15:44:53 10° SW 15:49:51 24° S 15:54:53 10° ESE daylight
06 Feb - 17:37:41 10° WSW 17:43:02 27° S 17:48:31 10° SE daylight
06 Feb - 19:31:44 10° WSW 19:36:14 19° SSW 19:40:48 10° SSE visible
07 Feb - 14:51:45 10° SSW 14:56:23 21° SSE 15:01:03 10° ESE daylight
07 Feb - 16:44:12 10° SW 16:49:32 27° S 16:54:56 10° SE daylight
07 Feb - 18:37:54 10° WSW 18:42:44 22° SSW 18:47:38 10° SE visible
08 Feb - 13:58:46 10° SSW 14:02:55 18° SSE 14:07:07 10° ESE daylight
08 Feb - 15:50:46 10° SW 15:56:02 27° S 16:01:20 10° ESE daylight
08 Feb - 17:44:11 10° WSW 17:49:14 24° S 17:54:20 10° SE visible
08 Feb - 19:39:31 10° SW 19:42:21 13° SSW 19:45:02 10° S visible
09 Feb - 13:06:02 10° SSW 13:09:26 15° SSE 13:12:56 10° SE daylight
09 Feb - 14:57:23 10° SW 15:02:33 25° S 15:07:42 10° ESE daylight
09 Feb - 16:50:32 10° WSW 16:55:44 26° S 17:00:58 10° SE daylight
09 Feb - 18:45:05 10° SW 18:48:52 16° SSW 18:52:34 10° SSE visible
10 Feb - 12:13:49 10° S 12:15:57 12° SSE 12:18:15 10° SE daylight
10 Feb - 14:04:03 10° SW 14:09:03 23° S 14:14:01 10° ESE daylight
10 Feb - 15:56:56 10° WSW 16:02:14 27° S 16:07:32 10° SE daylight
10 Feb - 17:51:01 10° WSW 17:55:23 19° SSW 17:59:43 10° SSE visible
